Simultaneous Nadir Overpasses (SNOs) Predictions

Prediction of SNOs between LANDSAT-8 and NOAA-19 Satellite Orbit:

Table of predicted SNOs for the next 14.0 days since TLE Epoch: 4/11/2020
Index Date (LANDSAT-8) Time (LANDSAT-8) Lat,Lon (LANDSAT-8) SZA (LANDSAT-8 ) Date (NOAA-19) Time (NOAA-19) Lat,Lon (NOAA-19) SZA (NOAA-19 ) Distance(km) Time Diff (sec)
1 04/11/2020 20:12:02 -79.64, 81.46 108.19 04/11/2020 20:12:13 -79.61, 81.41 108.21 2.81 11
2 04/14/2020 01:45:45 79.64, 178.06 71.03 04/14/2020 01:45:34 79.64, 177.92 71.01 2.76 11
3 04/14/2020 02:35:20 -79.34, -16.35 109.42 04/14/2020 02:36:22 -79.31, -11.66 109.04 96.62 62
4 04/16/2020 07:19:29 -79.66, -85.25 109.73 04/16/2020 07:18:52 -79.64, -85.37 109.77 3.05 37
5 04/16/2020 08:08:56 79.62, 82.08 70.20 04/16/2020 08:09:53 79.61, 82.17 70.22 1.76 57
6 04/18/2020 12:53:12 79.67, 11.38 69.52 04/18/2020 12:52:13 79.64, 11.42 69.47 3.50 59
7 04/18/2020 13:42:40 -79.64, 178.83 110.54 04/18/2020 13:43:11 -79.63, 178.71 110.54 2.49 31
8 04/20/2020 19:16:23 79.66, -84.51 68.73 04/20/2020 19:16:33 79.65, -84.66 68.72 3.05 10
9 04/23/2020 00:50:08 -79.66, 12.07 112.01 04/23/2020 00:49:49 -79.64, 12.16 112.02 2.58 19




NCC Satellite Simultaneous Nadir Overpasses (SNOs) Prediction Service
